Regional Weather Roundup
Issued by NWS Kansas City/Pleasant Hill, MO

Home | Current Version | Previous Version | Graphics & Text | Print | Product List | Glossary Off
Versions: 1 2 3 4 5 6 7 8 9 10 11 12 13 14 15 16 17 18 19 20 21 22 23 24 25 26 27 28 29 30 31 32 33 34 35 36 37 38 39 40 41 42 43 44 45 46 47 48 49 50

490
ASUS43 KEAX 291710
RWREAX

WEATHER ROUNDUP FOR EASTERN KANSAS AND NORTHWEST MISSOURI
NATIONAL WEATHER SERVICE KANSAS CITY/PLEASANT HILL MO
1200 PM CDT SUN MAY 29 2016

KSZ040-057-103>105-MOZ028-029-037-043-291800-
...KANSAS CITY METROPOLITAN AREA...

CITY           SKY/WX    TMP DP  RH WIND       PRES   REMARKS
K.C. INTL      MOSUNNY   80  62  54 VRB5      30.13S
K.C. DOWNTOWN  SUNNY     82  59  45 VRB3      30.11S
LEES SUMMIT    SUNNY     82  60  47 SW5       30.12S
OLATHE - IXD   SUNNY     82  56  40 W8        30.13S
OLATHE - OJC   SUNNY     81  59  47 SW7       30.12F
LAWRENCE       SUNNY     82  62  50 W5        30.11F

$$

MOZ001>008-011>017-020>025-030>033-038>040-044>046-053-054-291800-
...NORTHERN AND CENTRAL MISSOURI...

CITY           SKY/WX    TMP DP  RH WIND       PRES   REMARKS
ST. JOSEPH     SUNNY     80  60  50 CALM      30.11S
MOSBY          SUNNY     79  57  47 W7        30.12S
WARRENSBURG    SUNNY     81  59  47 SW5       30.12S
WHITEMAN AFB   SUNNY     82  60  47 VRB6      30.11F
CLINTON        MOSUNNY   82  68  61 SW7       30.13F
SEDALIA        SUNNY     83  59  44 W8        30.13F
WARSAW         NOT AVBL
CHILLICOTHE      N/A     81  63  54 VRB6      30.12S
KIRKSVILLE     SUNNY     78  61  55 NW12      30.12R

$$

MOZ041-047>049-056>058-063>065-088>090-097-291800-
...EASTERN AND SOUTHERN MISSOURI...

CITY           SKY/WX    TMP DP  RH WIND       PRES   REMARKS
ST. LOUIS INTL MOSUNNY   85  58  39 W8        30.12R
SPIRIT OF STL  MOSUNNY   83  61  47 W6        30.10S
COLUMBIA       SUNNY     81  60  48 SW7       30.13S
JEFFERSON CITY SUNNY     82  58  43 W5        30.11S
ROLLA          MOSUNNY   78  62  57 W7        30.13S
SPRINGFIELD    MOSUNNY   81  63  54 W9        30.16R
BRANSON        CLOUDY    79  64  61 NW6       30.18R
JOPLIN         MOSUNNY   83  66  56 VRB7      30.15S
WEST PLAINS    CLOUDY    80  62  54 VRB5      30.16S

$$

IAZ060-094-KSZ022-034>040-054-083-096-NEZ052-066-093-291800-
...KANSAS...SOUTHEAST NEBRASKA AND IOWA...

CITY           SKY/WX    TMP DP  RH WIND       PRES   REMARKS
TOPEKA         SUNNY     84  53  34 SW9       30.11S
MANHATTAN      CLOUDY    82  62  50 SW5       30.10F
EMPORIA        SUNNY     82  65  56 W5        30.12F
CHANUTE        MOSUNNY   82  67  60 W6        30.12F
WICHITA        CLOUDY    81  71  71 S12       30.11S
OMAHA          MOSUNNY   76  58  53 S5        30.09S
LINCOLN        SUNNY     80  58  46 SW7       30.10S
FALLS CITY     PTSUNNY   80  62  54 SW10      30.10S
LAMONI           N/A     76  61  59 W9        30.11S
DES MOINES     MOSUNNY   77  59  53 SW9       30.08S

$$





USA.gov is the U.S. government's official web portal to all federal, state and local government web resources and services.